Regional Weather Roundup
Issued by NWS

Home | Current Version | Previous Version | Text Only | Print | Product List | Glossary Off
Versions: 1 2 3 4 5 6 7 8 9 10 11 12 13 14 15 16 17 18 19 20 21 22 23 24 25 26 27 28 29 30 31 32 33 34 35 36 37 38 39 40 41 42 43 44 45 46 47 48 49 50

175
ASUS43 KMPX 191210
RWRMN
WEATHER ROUNDUP FOR MINNESOTA
NATIONAL WEATHER SERVICE TWIN CITIES/CHANHASSEN MN
700 AM CDT THU APR 19 2018


NOTE: "FAIR" INDICATES FEW OR NO CLOUDS BELOW 12,000 FEET WITH NO
SIGNIFICANT WEATHER AND/OR OBSTRUCTIONS TO VISIBILITY. N/A MEANS
CURRENT SKY AND/OR WEATHER CONDITIONS ARE NOT AVAILABLE.

MNZ060>063-068>070-191300-
   Twin Cities Metro

CITY           SKY/WX    TMP DP  RH WIND       PRES   REMARKS
TWIN CITIES    FAIR      29  17  61 NW3       30.40R
6HR MIN TEMP:  25; 6HR MAX TEMP:  33;

ST PAUL        FAIR      26  18  71 CALM      30.42R
CRYSTAL        FAIR      23  15  71 CALM      30.40R
BLAINE         FAIR      27  16  63 CALM      30.39R
LAKEVILLE      FAIR      25  16  68 NW5       30.40R WCI  19
EDEN PRAIRIE   FAIR      29  14  53 N7        30.39R WCI  22
6HR MIN TEMP:  28; 6HR MAX TEMP:  35;

SOUTH ST PAUL  FAIR      27  18  69 N3        30.40R
LAKE ELMO      FAIR      23  18  80 N3        30.41R
$$
MNZ001>005-007-008-013>017-022>024-027-028-191300-
   Northwest Minnesota

CITY           SKY/WX    TMP DP  RH WIND       PRES   REMARKS
BEMIDJI        FAIR      24  18  79 CALM      30.37R
HALLOCK        FAIR      28  27  93 CALM      30.37R
ROSEAU         FAIR      30  25  80 CALM      30.37R
WARROAD        FAIR      27  21  80 CALM      30.37S
THIEF RVR FALL FAIR      29  25  85 CALM      30.38R
CROOKSTON      FAIR      30  27  86 SE3       30.38S
FOSSTON        FAIR      25  16  68 CALM      30.38R
DETROIT LAKES  FAIR      30  23  74 CALM      30.39R
MOORHEAD       FAIR      28  27  93 CALM      30.39R
PARK RAPIDS    FAIR      25  19  78 CALM      30.37R
MAHNOMEN       FAIR      30  20  68 SE5       30.37R WCI  25
$$
MNZ006-009>011-018-025>026-191300-
   North Central Minnesota

CITY           SKY/WX    TMP DP  RH WIND       PRES   REMARKS
BAUDETTE       FAIR      25  22  88 CALM      30.37R
FLAG ISLAND    FAIR      25  18  74 CALM      30.37R
INTL FALLS     FAIR      20  18  92 CALM      30.37R
6HR MIN TEMP:  18; 6HR MAX TEMP:  27;

WASKISH        FAIR      21  19  93 CALM      30.38R
BIG FORK       FAIR      19  16  86 CALM      30.38R
LONGVILLE      FAIR      19  18  93 CALM      30.38R
GRAND RAPIDS   FAIR      23  16  74 CALM      30.39R
CRANE LAKE     FAIR      12  12 100 CALM      30.39R
ORR            FAIR      18  12  79 CALM      30.35R
COOK           FAIR      18  16  93 CALM      30.37R
WALKER         FAIR      22  15  72 CALM      30.37R
$$
MNZ012-019>021-037-191300-
   Northeast Minnesota

CITY           SKY/WX    TMP DP  RH WIND       PRES   REMARKS
DULUTH         FAIR      22  11  62 NW6       30.35R WCI  14
6HR MIN TEMP:  20; 6HR MAX TEMP:  31;

ELY            FAIR      16  10  79 CALM      30.36R
HIBBING        FAIR      20  17  88 CALM      30.36R
EVELETH        FAIR      19  17  89 CALM      30.37R
DULUTH HARBOR  FAIR      27  18  69 SW3       30.39R
TWO HARBORS    FAIR      28  19  69 CALM      30.34R
SILVER BAY     FAIR      19  18  93 CALM      30.34R
GRAND MARAIS     N/A     36  16  44 E7        30.34R
G MARAIS ARPRT FAIR      25   9  50 N8        30.31R WCI  16
$$
MNZ029>031-032-039>041-046>048-054>057-064-191300-
   West Central Minnesota

CITY           SKY/WX    TMP DP  RH WIND       PRES   REMARKS
FERGUS FALLS   FAIR      28  25  86 S3        30.39R
WHEATON        PTCLDY    30  27  86 S5        30.42R WCI  25
MORRIS         CLOUDY    30  28  93 S5        30.39R WCI  25
ALEXANDRIA     FAIR      32  19  58 SW7       30.39R WCI  26
ELBOW LAKE     FAIR      30  28  92 E6        30.39R WCI  24
WADENA         FAIR      23  21  93 CALM      30.38R
GLENWOOD       FAIR      30  21  69 SW5       30.39S WCI  25
APPLETON       CLOUDY    28  27  93 CALM      30.40S
BENSON         PTCLDY    27  25  93 CALM      30.42R
ORTONVILLE     CLOUDY    30  27  86 S3        30.40R
MADISON        CLOUDY    30  28  93 CALM      30.41R
WILLMAR        FAIR      28  27  93 CALM      30.42R
$$
MNZ033>034-036-042>043-049>051-058-059-191300-
   Central Minnesota

CITY           SKY/WX    TMP DP  RH WIND       PRES   REMARKS
ST CLOUD       FAIR      25  20  81 W3        30.40R
6HR MIN TEMP:  25; 6HR MAX TEMP:  30;

SAUK CENTRE    FAIR      25  23  93 CALM      30.39R
PAYNESVILLE    FAIR      26  25  94 CALM      30.40R
AITKIN         FAIR      19  18  93 CALM      30.37R
PINE RIVER     FAIR      21  18  86 CALM      30.40R
BRAINERD       FAIR      24  18  77 CALM      30.39R
STAPLES        FAIR      23  18  80 CALM      30.38R
LONG PRAIRIE   FAIR      27  21  80 CALM      30.39R
LITTLE FALLS   FAIR      25  14  63 CALM      30.40R
LITCHFIELD     FAIR      28  21  74 CALM      30.41R
BUFFALO        FAIR      25  16  69 CALM      30.41R
MAPLE LAKE     FAIR      25  19  78 CALM      30.41R
HUTCHINSON     FAIR      24  18  79 CALM      30.41R
$$
MNZ037-044-045-052-053-191300-
   East Central Minnesota

CITY           SKY/WX    TMP DP  RH WIND       PRES   REMARKS
PRINCETON      FAIR      23  18  80 CALM      30.40R
MORA           FAIR      25  19  80 CALM      30.41R
RUSH CITY      FAIR      28  15  58 W3        30.40R
MOOSE LAKE     FAIR      28  12  50 CALM      30.36R
HINCKLEY       FAIR      32  16  51 CALM      30.39R
CLOQUET        FAIR      27  10  50 NW6       30.36R WCI  20
MCGREGOR       FAIR      25  19  80 CALM      30.38R
$$
MNZ071>073-080-081-089-090-097-098-191300-
   Southwest Minnesota

CITY           SKY/WX    TMP DP  RH WIND       PRES   REMARKS
MONTEVIDEO     CLOUDY    27  19  74 NW5       30.42R WCI  21
GRANITE FALLS  CLOUDY    24  21  91 W3        30.43R
CANBY          CLOUDY    27  25  94 SW5       30.42R WCI  21
MARSHALL       CLOUDY    21  18  88 W3        30.42R
REDWOOD FALLS  CLOUDY    28  19  69 CALM      30.40R
OLIVIA         CLOUDY    30  23  74 CALM      30.40R
PIPESTONE      CLOUDY   N/A N/A N/A NE3       30.38R
WINDOM           N/A     23   7  50 N5        30.39R WCI  17
WORTHINGTON    PTCLDY    18  12  77 N8        30.39R WCI   8
JACKSON        CLOUDY    19  12  73 NW3       30.38R
TRACY          CLOUDY    25  20  80 CALM      30.40R
SLAYTON        CLOUDY    17  13  86 W8        30.40R WCI   6
$$
MNZ065>067-074>077-082>085-091>093-191300-
   South Central Minnesota

CITY           SKY/WX    TMP DP  RH WIND       PRES   REMARKS
MANKATO        FAIR      22  16  78 CALM      30.41R
NEW ULM        CLOUDY    25  14  63 N3        30.40R
ST JAMES       CLOUDY    16  12  86 CALM      30.41R
FAIRMONT       CLOUDY    19  14  81 N8        30.40R WCI   9
GLENCOE        FAIR      25  16  67 NW3       30.40R
OWATONNA       FAIR      12  10  92 CALM      30.38R
WASECA         FAIR      18  12  79 N9        30.40R WCI   6
ALBERT LEA     FAIR      18  12  79 N6        30.38R WCI   9
$$
MNZ078>079-086>088-094>096-191300-
   Southeast Minnesota

CITY           SKY/WX    TMP DP  RH WIND       PRES   REMARKS
ROCHESTER      FAIR      19  17  92 NW10      30.36R WCI   7
6HR MIN TEMP:  19; 6HR MAX TEMP:  28;

RED WING       FAIR      25  16  68 E3        30.39R
STANTON        FAIR      17  14  88 S3        30.38R
DODGE CENTER   FAIR      21  12  68 NW8       30.36R WCI  12
WINONA         FAIR      21  21 100 NW5       30.36R WCI  15
AUSTIN         FAIR      18  16  93 N3        30.36R
PRESTON        FAIR      22  16  78 NW8       30.34R WCI  12
$$
ABBREVIATIONS USED IN REMARKS
   TC - TEMPERATURES IN CELSIUS
  WCI - WIND CHILL INDEX
   HX - HEAT INDEX
  VSB - VISIBILITY
$$




USA.gov is the U.S. government's official web portal to all federal, state and local government web resources and services.